sat.trackr.live / text

‹ back to catalog

STARLINK-5719

NORAD 55609 · 2023-020AS

PAYLOAD ACTIVE UNKNOWN

§ Identity

Operator
Country
US
Launch date
2023-02-12
Launch site
AFETR
Launch vehicle
Mass (kg)
RCS (m²)

Purposes: comms

External: N2YO · Heavens-Above · Gunter

§ Orbital elements

Epoch: 2026-09-20T21:38:22.204032Z

Period
94.27 min
Inclination
43.0034°
Eccentricity
0.0001213
Mean motion
15.27571262 rev/d
Perigee alt
482.2 km
Apogee alt
483.9 km
Semi-major
6,861.2 km
B*
-1.7438e-5
RAAN
331.8501°
Arg perigee
275.6755°
Mean anomaly
84.3958°
Rev number
19,889

§ Raw data

STARLINK-57191 55609U 23020AS  26263.90164588 -.00000742  00000+0 -17438-4 0  99932 55609  43.0034 331.8501 0001213 275.6755  84.3958 15.27571262198896

JSON: /api/v1/satellites/55609 · /tle

For live sub-satellite position, see the globe view (requires WebGL).

§ Visibility from observer

Set your observer location to see the next 7 days of passes ≥ 10°. The values pass through the URL so the page stays shareable.

No JS? Fill the form by hand. The geolocation button needs JavaScript.